La Crosse, WI

12:37 AM CDT on July 22, 2017 (GMT -0500)
La Crosse Municipal

Weather History for KLSE - March, 2012

Change the Weather History Date:

Friday, March 16, 2012

  Actual Average Record
Temperature  
Mean Temperature 62 °F 34 °F  
Max Temperature 79 °F 44 °F 79 °F (2012)
Min Temperature 44 °F 25 °F -8 °F (1956)
Degree Days  
Heating Degree Days 3 31  
Month to date heating degree days 350 542  
Since 1 July heating degree days 5091 6051  
Cooling Degree Days 0 0  
Month to date cooling degree days 0 0  
Year to date cooling degree days 0 0  
Growing Degree Days 11 (Base 50)    
Moisture  
Dew Point 51 °F    
Average Humidity 76    
Maximum Humidity 100    
Minimum Humidity 52    
Precipitation  
Precipitation 0.00 in 0.06 in 1.05 in (1942)
Month to date precipitation 0.31 0.92  
Year to date precipitation 2.83 3.09  
Snow  
Snow 0.00 in 0.20 in 4.70 in (1917)
Month to date snowfall 0.5 4.5  
Since 1 July snowfall 21.5 39.0  
Snow Depth 0.00 in    
Sea Level Pressure  
Sea Level Pressure 29.94 in    
Wind  
Wind Speed 8 mph (SSE)    
Max Wind Speed 20 mph    
Max Gust Speed 29 mph    
Visibility 7 miles    
Events      
T = Trace of Precipitation, MM = Missing Value Source: NWS Daily Summary

Daily Weather History Graph

Daily Weather History Graph

Search for Another Location

Airport or City:

Trip Planner

Search our weather history database for the weather conditions in past years. The results will help you decide how hot, cold, wet, or windy it might be!

Date:

Astronomy

Mar. 16, 2012 Rise Set
Actual Time 7:14 AM CDT 7:13 PM CDT
Civil Twilight 6:45 AM CDT 7:41 PM CDT
Nautical Twilight 6:12 AM CDT 8:15 PM CDT
Astronomical Twilight 5:38 AM CDT 8:49 PM CDT
Moon 3:43 AM CDT (3/16) 1:23 PM CDT (3/16)
Length of Visible Light 12h 55m
Length of Day
11h 58m
Waning Crescent, 32% of the Moon is Illuminated
Mar 16
Waning Crescent
Mar 22
New
Mar 30
First Quarter
Apr 6
Full
Apr 13
Last Quarter

Hourly Weather History & Observations

Time (CDT) Temp. Windchill Dew Point Humidity Pressure Visibility Wind Dir Wind Speed Gust Speed Precip Events Conditions
12:05 AM 48.2 °F - 48.2 °F 100% 29.99 in 1.0 mi Calm Calm - N/A   Mist
12:07 AM 48.2 °F - 48.2 °F 100% 29.99 in 2.5 mi Calm Calm - N/A   Partly Cloudy
12:14 AM 48.2 °F - 46.4 °F 93% 29.98 in 5.0 mi East 3.5 mph - N/A   Partly Cloudy
12:22 AM 46.4 °F 45.2 °F 46.4 °F 100% 29.98 in 1.5 mi East 3.5 mph - N/A   Clear
12:34 AM 46.4 °F - 46.4 °F 100% 29.98 in 3.0 mi Calm Calm - N/A   Clear
12:53 AM 48.0 °F - 46.9 °F 96% 29.98 in 8.0 mi Calm Calm - N/A   Clear
1:53 AM 46.0 °F 43.1 °F 45.0 °F 96% 29.98 in 6.0 mi SE 5.8 mph - N/A   Clear
2:53 AM 48.9 °F - 46.9 °F 93% 29.97 in 7.0 mi East 6.9 mph - N/A   Clear
3:53 AM 46.4 °F - 46.4 °F 100% 29.97 in 5.0 mi Calm Calm - N/A   Clear
4:53 AM 46.9 °F - 46.0 °F 97% 29.97 in 6.0 mi ESE 5.8 mph - N/A   Clear
5:53 AM 46.9 °F - 46.0 °F 97% 29.98 in 5.0 mi East 3.5 mph - N/A   Clear
6:12 AM 44.6 °F 43.1 °F 44.6 °F 100% 29.98 in 1.8 mi North 3.5 mph - N/A   Partly Cloudy
6:27 AM 46.4 °F - 44.6 °F 93% 29.98 in 3.0 mi Calm Calm - N/A   Mostly Cloudy
6:53 AM 46.4 °F - 44.6 °F 93% 29.98 in 4.0 mi Calm Calm - N/A   Scattered Clouds
7:53 AM 48.9 °F - 46.9 °F 93% 29.99 in 3.0 mi East 4.6 mph - N/A   Scattered Clouds
8:53 AM 51.1 °F - 48.0 °F 89% 29.99 in 4.0 mi ESE 4.6 mph - N/A   Clear
9:53 AM 55.0 °F - 48.9 °F 80% 29.99 in 5.0 mi SE 3.5 mph - N/A   Haze
10:53 AM 61.0 °F - 50.0 °F 67% 29.98 in 7.0 mi SSE 4.6 mph - N/A   Scattered Clouds
11:53 AM 68.0 °F - 54.0 °F 61% 29.96 in 8.0 mi South 5.8 mph - N/A   Partly Cloudy
12:53 PM 73.0 °F - 57.0 °F 57% 29.94 in 9.0 mi South 9.2 mph - N/A   Clear
1:53 PM 75.9 °F - 59.0 °F 56% 29.91 in 10.0 mi South 13.8 mph - N/A   Clear
2:53 PM 78.1 °F - 61.0 °F 56% 29.88 in 10.0 mi South 17.3 mph - N/A   Partly Cloudy
3:53 PM 78.1 °F - 59.0 °F 52% 29.86 in 10.0 mi South 11.5 mph - N/A   Partly Cloudy
4:53 PM 78.1 °F - 59.0 °F 52% 29.85 in 10.0 mi South 12.7 mph - N/A   Scattered Clouds
5:53 PM 75.9 °F - 59.0 °F 56% 29.85 in 10.0 mi South 12.7 mph - N/A   Scattered Clouds
6:53 PM 73.9 °F - 59.0 °F 59% 29.86 in 10.0 mi South 9.2 mph - N/A   Clear
7:53 PM 71.1 °F - 57.9 °F 63% 29.86 in 10.0 mi SSE 5.8 mph - N/A   Partly Cloudy
8:53 PM 71.1 °F - 57.9 °F 63% 29.86 in 10.0 mi SSE 9.2 mph - N/A   Partly Cloudy
9:53 PM 71.1 °F - 57.9 °F 63% 29.87 in 10.0 mi SSE 9.2 mph - N/A   Clear
10:53 PM 64.0 °F - 57.0 °F 78% 29.88 in 10.0 mi SSW 6.9 mph - N/A   Clear
11:53 PM 68.0 °F - 57.9 °F 70% 29.87 in 10.0 mi South 11.5 mph - N/A   Clear